{"data":{"norad_id":59517,"intl_designator":"2024-073G","name":"STARLINK-31674","alt_names":[],"object_type":"PAYLOAD","status":"ACTIVE","operator":null,"country":"US","launch_date":"2024-04-17","launch_site_code":"AFETR","launch_vehicle":null,"mission":null,"orbit_class":"UNKNOWN","rcs_meters":null,"size_class":null,"mass_kg":null,"dimensions":null,"purposes":["comms"],"wikipedia_slug":null,"has_3d_model":false,"image_url":null,"decayed_at":null,"tle_current":{"epoch":"2026-05-24T15:34:33.290688Z","epoch_age_seconds":99228,"freshness":"FRESH","line1":"1 59517U 24073G   26144.64899642 -.00000619  00000+0 -12981-4 0  9990","line2":"2 59517  43.0029 248.9568 0001020 268.5382  91.5353 15.27572025117793","mean_motion":15.27572025,"eccentricity":0.000102,"inclination_deg":43.0029,"raan_deg":248.9568,"arg_perigee_deg":268.5382,"mean_anomaly_deg":91.5353,"bstar":-1.2981e-5,"rev_number":11779,"period_min":94.267240852359,"perigee_km":482.37313274497,"apogee_km":483.7728195801,"semimajor_km":6861.2099761625,"source":"CELESTRAK","updated_at":"2026-05-25T13:38:18.974939Z"}}}